{"data":{"norad_id":48301,"intl_designator":"2021-036AB","name":"STARLINK-2537","alt_names":[],"object_type":"PAYLOAD","status":"ACTIVE","operator":null,"country":"US","launch_date":"2021-04-29","launch_site_code":"AFETR","launch_vehicle":null,"mission":null,"orbit_class":"UNKNOWN","rcs_meters":null,"size_class":null,"mass_kg":null,"dimensions":null,"purposes":["comms"],"wikipedia_slug":null,"has_3d_model":false,"image_url":null,"decayed_at":null,"tle_current":{"epoch":"2026-09-19T15:14:39.742080Z","epoch_age_seconds":108445,"freshness":"FRESH","line1":"1 48301U 21036AB  26262.63518220 -.00000286  00000+0  25504-5 0  9990","line2":"2 48301  53.1603 268.5887 0001627  62.0346 298.0820 15.31696513297891","mean_motion":15.31696513,"eccentricity":0.0001627,"inclination_deg":53.1603,"raan_deg":268.5887,"arg_perigee_deg":62.0346,"mean_anomaly_deg":298.082,"bstar":2.5504e-6,"rev_number":29789,"period_min":94.013401987813,"perigee_km":469.6360758326,"apogee_km":471.86470378924,"semimajor_km":6848.8873898109,"source":"CELESTRAK","updated_at":"2026-09-20T09:00:38.932021Z"}}}